[[{"header":{"parameterUnit":"m.s-1","parameterCategory":2,"la1":30.2991,"la2":30.254,"lo1":-89.0895,"lo2":-89.0444,"dy":0.0017,"dx":0.0017,"nx":28,"ny":28,"refTime":"2025-08-21T03:00:00:Z","depth":"0","parameterNumber":2,"parameterNumberName":"U-component_of_CURRENTS"},"data":[0,0,0,0,0,0,0,0,0,0,0,0,0,0,0,0,0,0,0,0,0,0,0,0,0,0,0,0,0,0,0,0,0,0,0,0,0,0,0,0,0,0,0,0,0,0,0,0,0,0,0,0,0,0,0,0,0,0,0.3073,0.3074,0,0.3116,0.3116,0.3116,0.3108,0.3108,0.3107,0.3107,0.311,0.3111,0.3111,0,0,0,0,0,0,0,0,0,0,0,0,0,0.2992,0.2993,0.3073,0.3074,0.3075,0.3116,0.3116,0.3116,0.3108,0.3108,0.3107,0.3107,0.311,0.3111,0.3111,0,0,0,0,0,0,0,0,0,0,0,0,0,0.3026,0.2993,0.3073,0.3079,0.308,0.3116,0.3116,0.3116,0.3108,0.3108,0.3107,0.3107,0.311,0.3111,0.3112,0.3128,0,0,0.3114,0.3114,0,0,0,0,0,0,0,0,0.3024,0.3029,0.3077,0.3079,0.308,0.311,0.3089,0.312,0.3109,0.3093,0.3107,0.3106,0.311,0.311,0.3115,0.3128,0.3128,0.3114,0.3114,0.3114,0.3115,0,0,0,0,0,0,0,0.3022,0.3027,0.3086,0.3078,0.308,0.3082,0.3086,0.3095,0.31,0.3095,0.3095,0.3107,0.311,0.3114,0.3115,0.3128,0.3114,0.3114,0.3115,0.3115,0.3173,0.3174,0,0,0,0,0,0,0.3025,0.3025,0.3085,0.3088,0.3055,0.3084,0.3088,0.3098,0.3101,0.3103,0.3107,0.3106,0.3113,0.3114,0.3115,0.3175,0.3114,0.3115,0.3115,0.3172,0.3173,0.3174,0,0,0,0,0,0,0.3023,0.303,0.3083,0.306,0.3068,0.3087,0.3097,0.3099,0.3109,0.3112,0.3112,0.3117,0.3113,0.3114,0.3126,0.3173,0.3115,0.3116,0.317,0.3172,0.3174,0.3269,0,0,0,0,0,0,0.3021,0.3029,0.3035,0.3061,0.3069,0.3114,0.3098,0.31,0.3119,0.3118,0.312,0.312,0.3112,0.3125,0.3127,0.3173,0.3117,0.3169,0.3171,0.3173,0.3264,0.3273,0.3281,0,0,0,0,0,0.3018,0.303,0.3035,0.3043,0.3078,0.3115,0.3119,0.3128,0.312,0.3132,0.3128,0.312,0.314,0.3126,0.3128,0.3176,0.3168,0.3171,0.3173,0.326,0.3271,0.3281,0,0,0,0,0,0,0.2992,0.3032,0.3038,0.306,0.309,0.3115,0.3129,0.3135,0.3142,0.3139,0.3131,0.3131,0.3167,0.3148,0.3134,0.3196,0.3155,0.3158,0.322,0.3231,0.3239,0.3243,0.3117,0,0,0,0,0,0.2992,0.3015,0.3051,0.307,0.3087,0.3109,0.3124,0.3135,0.3148,0.3151,0.3152,0.3155,0.3179,0.3184,0.3195,0.3222,0.3253,0.3253,0.3261,0.3269,0.3272,0.3359,0.3377,0.3183,0.3183,0.3183,0,0,0.2985,0.3013,0.3023,0.3067,0.3088,0.3123,0.3116,0.3148,0.3176,0.315,0.3178,0.3189,0.3193,0.3232,0.3246,0.3221,0.3346,0.3272,0.3279,0.3278,0.3364,0.3383,0.34,0.3184,0.3184,0.3184,0,0,0.2991,0.3012,0.3034,0.3067,0.3112,0.3134,0.3147,0.3181,0.3195,0.3224,0.3225,0.3257,0.327,0.3297,0.3309,0.3367,0.3394,0.3372,0.3418,0.3503,0.3521,0.3536,0.3633,0.3657,0.3371,0.3371,0.3371,0,0.298,0.3014,0.3046,0.3082,0.311,0.3143,0.3175,0.3204,0.3235,0.3257,0.3239,0.3304,0.3307,0.3379,0.3398,0.3392,0.3445,0.3383,0.3518,0.3534,0.3548,0.3644,0.3668,0.3376,0.3376,0.3375,0.3375,0,0.3003,0.3036,0.3055,0.3113,0.3148,0.3183,0.3233,0.3269,0.3287,0.3315,0.3383,0.3397,0.3433,0.3452,0.3441,0.3549,0.356,0.3529,0.3499,0.3575,0.3669,0.3694,0.3383,0.3381,0.338,0.3379,0,0,0.2958,0.3052,0.3057,0.3094,0.3166,0.32,0.3261,0.3327,0.3381,0.3413,0.3488,0.3527,0.3541,0.3555,0.3567,0.3635,0.3793,0.3626,0.3628,0.3735,0.401,0.3952,0.3973,0.3796,0.38,0.3803,0.4048,0,0.2962,0.3032,0.3077,0.3145,0.3186,0.3245,0.3304,0.3371,0.3428,0.3511,0.3555,0.3629,0.3581,0.3625,0.3683,0.3778,0.3855,0.373,0.3908,0.3913,0.3864,0.3998,0.3847,0.4046,0.4071,0.4075,0.4078,0,0.296,0.3015,0.3077,0.3178,0.3201,0.3246,0.3356,0.3418,0.3542,0.3589,0.3665,0.3713,0.3831,0.3775,0.3962,0.3891,0.395,0.4009,0.4019,0.3943,0.3899,0.3966,0.4088,0.3948,0.4115,0.4112,0.411,0,0.292,0.3011,0.3062,0.3094,0.3212,0.3252,0.3318,0.3435,0.3505,0.366,0.3737,0.3856,0.3947,0.4041,0.413,0.4077,0.4342,0.4282,0.4287,0.4285,0.4176,0.4157,0.4186,0.441,0.4409,0.4408,0.4408,0,0.2917,0.2961,0.3048,0.3084,0.3166,0.3239,0.3337,0.3432,0.356,0.3659,0.3773,0.3882,0.4019,0.4163,0.4217,0.4342,0.4412,0.4335,0.4354,0.4205,0.4186,0.4068,0.3992,0.4418,0.4416,0.4414,0.4412,0,0.2913,0.2947,0.3027,0.3129,0.3157,0.3229,0.3351,0.3409,0.3551,0.3695,0.3756,0.3958,0.4155,0.428,0.4478,0.4461,0.446,0.4593,0.4415,0.4406,0.4233,0.4167,0.4114,0.3991,0.4664,0.4664,0.4664,0,0.2948,0.2973,0.3067,0.3083,0.3135,0.3224,0.3264,0.34,0.3465,0.3725,0.3787,0.4038,0.4174,0.4459,0.4526,0.4662,0.4482,0.4564,0.4406,0.4237,0.418,0.401,0.3897,0.433,0.4328,0.4326,0.4324,0,0.3009,0.3014,0.3057,0.3098,0.3129,0.3186,0.3259,0.3306,0.3464,0.3598,0.378,0.3927,0.4218,0.4309,0.4491,0.4531,0.4326,0.4521,0.4401,0.3973,0.3739,0.3623,0.4167,0.4305,0.4307,0.4308,0.4309,0.431,0.3035,0.3054,0.3053,0.3083,0.3106,0.3103,0.3108,0.3189,0.3287,0.3443,0.3663,0.3828,0.406,0.4302,0.4321,0.4239,0.4208,0.4105,0.4068,0.3933,0.3702,0.4204,0.4308,0.431,0.4311,0.4313,0.4314,0,0.3016,0.299,0.3023,0.3004,0.2973,0.3025,0.3048,0.3017,0.3066,0.3288,0.344,0.3655,0.3773,0.3911,0.3954,0.3812,0.3639,0.3689,0.3409,0.3341,0.3858,0.3725,0.3637,0.3638,0.3638,0.3638,0.3638,0.3638,0.2982,0.2938,0.2924,0.2839,0.2825,0.274,0.2716,0.2728,0.2828,0.2948,0.3072,0.3269,0.351,0.3662,0.3549,0.3453,0.3153,0.3031,0.3002,0.3353,0.3387,0.3419,0.3274,0.3094,0.3094,0.235,0.2344,0.234]},{"header":{"parameterUnit":"m.s-1","parameterCategory":2,"la1":30.2991,"la2":30.254,"lo1":-89.0895,"lo2":-89.0444,"dy":0.0017,"dx":0.0017,"nx":28,"ny":28,"refTime":"2025-08-21T03:00:00:Z","depth":"0","parameterNumber":3,"parameterNumberName":"V-component_of_CURRENTS"},"data":[0,0,0,0,0,0,0,0,0,0,0,0,0,0,0,0,0,0,0,0,0,0,0,0,0,0,0,0,0,0,0,0,0,0,0,0,0,0,0,0,0,0,0,0,0,0,0,0,0,0,0,0,0,0,0,0,0,0,0.0203,0.0203,0,0.0136,0.0135,0.0134,0.0077,0.0076,0.0076,0.0076,-0.0042,-0.0045,-0.0048,0,0,0,0,0,0,0,0,0,0,0,0,0,0.023,0.023,0.0203,0.0203,0.0202,0.0136,0.0135,0.0133,0.0077,0.0076,0.0076,0.0076,-0.0041,-0.0045,-0.0048,0,0,0,0,0,0,0,0,0,0,0,0,0,0.0193,0.023,0.0203,0.0168,0.0165,0.0136,0.0135,0.0133,0.0077,0.0076,0.0076,0.0075,-0.004,-0.0045,-0.0049,-0.0065,0,0,-0.0062,-0.0064,0,0,0,0,0,0,0,0,0.0196,0.0192,0.0174,0.0171,0.0166,0.0117,0.0101,0.0065,0.0077,0.0107,0.0076,0.0075,0.0009,0.0,-0.0015,-0.007,-0.0075,-0.0062,-0.0065,-0.0066,-0.0068,0,0,0,0,0,0,0,0.0198,0.0194,0.0173,0.0173,0.0169,0.0138,0.0132,0.0094,0.0058,0.0104,0.0101,0.0098,0.0006,-0.0011,-0.0018,-0.0077,-0.0062,-0.0066,-0.0068,-0.007,-0.0142,-0.0141,0,0,0,0,0,0,0.0216,0.0197,0.0175,0.0172,0.0184,0.0138,0.0132,0.0131,0.0059,0.0049,0.0099,0.0096,-0.0003,-0.0013,-0.0023,-0.0033,-0.0066,-0.007,-0.0073,-0.0142,-0.0142,-0.0141,0,0,0,0,0,0,0.0217,0.0215,0.0178,0.0185,0.0179,0.0139,0.0138,0.013,0.0117,0.0056,0.0045,0.0096,-0.0004,-0.0017,-0.005,-0.0039,-0.0072,-0.0076,-0.0143,-0.0142,-0.0141,-0.0062,0,0,0,0,0,0,0.0218,0.0216,0.0218,0.0187,0.0179,0.0174,0.0138,0.0129,0.0118,0.0113,0.005,0.0038,-0.0005,-0.0043,-0.0054,-0.0045,-0.008,-0.0144,-0.0143,-0.0142,-0.0066,-0.0059,-0.0053,0,0,0,0,0,0.0219,0.0234,0.0218,0.0216,0.0185,0.0175,0.0168,0.0136,0.0118,0.012,0.0075,0.004,-0.0043,-0.0046,-0.0059,-0.0051,-0.0144,-0.0143,-0.0142,-0.0069,-0.006,-0.0053,0,0,0,0,0,0,0.0248,0.0229,0.0211,0.0219,0.0202,0.0167,0.0166,0.0145,0.0111,0.0104,0.0044,0.0029,0.0005,-0.0032,-0.0033,-0.0067,-0.0098,-0.0099,-0.0038,-0.0031,-0.0024,0.0005,-0.0083,0,0,0,0,0,0.0256,0.0261,0.0236,0.0242,0.0237,0.0202,0.0192,0.0173,0.0142,0.0126,0.0084,0.0038,0.0,-0.0021,-0.006,-0.0079,-0.0087,-0.0081,-0.0074,-0.0069,-0.0053,-0.0049,-0.004,-0.0136,-0.0136,-0.0136,0,0,0.027,0.0259,0.0261,0.0248,0.023,0.0235,0.0194,0.0191,0.0192,0.0119,0.0105,0.0058,0.0,-0.0022,-0.0036,-0.0051,-0.0045,-0.0067,-0.0061,-0.0049,-0.0046,-0.0037,-0.0028,-0.0135,-0.0135,-0.0135,0,0,0.0306,0.029,0.0306,0.0299,0.0283,0.0263,0.0268,0.0239,0.0221,0.0203,0.0151,0.0116,0.006,0.0023,-0.0005,0.0016,-0.0011,0.0002,0.0057,0.0061,0.007,0.0077,0.0085,0.0092,0.0006,0.0006,0.0006,0,0.0321,0.0337,0.031,0.0325,0.0326,0.0283,0.0303,0.0282,0.0246,0.0242,0.0212,0.0146,0.0084,0.0066,0.0062,0.0031,0.0035,0.0032,0.0072,0.0079,0.0085,0.0091,0.0098,0.001,0.001,0.0009,0.0009,0,0.0369,0.0381,0.0393,0.0395,0.0393,0.0404,0.0377,0.037,0.0342,0.0323,0.0304,0.023,0.0197,0.0164,0.011,0.0122,0.0112,0.0081,0.0057,0.01,0.0103,0.0109,0.0016,0.0015,0.0013,0.0012,0,0,0.0407,0.0423,0.0427,0.0449,0.0432,0.0445,0.0443,0.0441,0.047,0.0413,0.0452,0.0349,0.0322,0.029,0.0226,0.0211,0.0235,0.0168,0.0166,0.0185,0.0259,0.0238,0.0242,0.0218,0.0219,0.022,0.0247,0,0.045,0.0504,0.0492,0.0543,0.0569,0.0536,0.0554,0.0545,0.0531,0.0559,0.0483,0.0496,0.0368,0.0376,0.033,0.0276,0.0254,0.0231,0.0207,0.0206,0.019,0.025,0.0219,0.024,0.0253,0.0254,0.0254,0,0.0501,0.0531,0.0594,0.0637,0.0647,0.0674,0.071,0.0724,0.0731,0.0727,0.0706,0.0668,0.0631,0.0534,0.0444,0.0442,0.0353,0.0295,0.0295,0.0255,0.0197,0.0196,0.025,0.0037,0.0263,0.0262,0.0262,0,0.056,0.0604,0.0663,0.0676,0.0714,0.0745,0.0769,0.0784,0.0841,0.0864,0.0934,0.0846,0.0878,0.0737,0.0586,0.0532,0.0513,0.0424,0.0318,0.0315,0.0274,0.0266,0.0127,0.0366,0.0366,0.0366,0.0366,0,0.0621,0.0674,0.0707,0.0747,0.0854,0.0835,0.0954,0.0963,0.1025,0.1148,0.1049,0.1147,0.0938,0.0892,0.0687,0.0545,0.0588,0.0351,0.033,0.03,0.0294,0.0092,-0.0018,0.0367,0.0367,0.0366,0.0366,0,0.0716,0.0714,0.0811,0.0865,0.0897,0.0989,0.1111,0.1198,0.1233,0.1401,0.1435,0.142,0.1359,0.1135,0.0955,0.0731,0.0444,0.0489,0.0471,0.0445,0.0106,0.0002,-0.0122,-0.0203,0.0371,0.037,0.037,0,0.0789,0.0839,0.0938,0.1007,0.1052,0.1173,0.1267,0.1316,0.1425,0.1585,0.1692,0.1696,0.1719,0.144,0.1049,0.0716,0.0492,0.0461,0.0323,0.0107,-0.0025,-0.0104,-0.0169,0.03,0.03,0.0299,0.0299,0,0.0944,0.0969,0.1045,0.1184,0.1294,0.1434,0.1569,0.1683,0.1773,0.1917,0.2092,0.213,0.1879,0.155,0.1091,0.0821,0.0308,0.0438,0.0221,-0.0076,-0.0175,-0.0269,0.0263,0.0293,0.0294,0.0294,0.0294,0.0295,0.1078,0.1162,0.1237,0.1373,0.15,0.1658,0.1785,0.1932,0.2129,0.2334,0.2369,0.2453,0.1946,0.1315,0.0964,0.0253,0.0277,0.001,-0.0089,-0.0142,-0.0254,0.0272,0.0268,0.0268,0.0269,0.0269,0.0269,0,0.1215,0.1274,0.1413,0.1553,0.1697,0.1739,0.1955,0.2081,0.231,0.251,0.2649,0.2411,0.1808,0.1166,0.0225,-0.021,-0.0384,-0.0446,-0.0593,-0.0629,-0.0159,-0.0199,-0.0313,-0.0312,-0.0312,-0.0312,-0.0312,-0.0312,0.1281,0.1398,0.1444,0.1675,0.1783,0.1979,0.2098,0.2298,0.2462,0.2654,0.2683,0.2687,0.2097,0.0538,-0.0498,-0.0712,-0.1011,-0.106,-0.1174,-0.0909,-0.0875,-0.0843,-0.091,-0.117,-0.1172,-0.1618,-0.1623,-0.1627]}],[{"header":{"parameterUnit":"m.s-1","parameterCategory":2,"la1":30.2991,"la2":30.254,"lo1":-89.0895,"lo2":-89.0444,"dy":0.0017,"dx":0.0017,"nx":28,"ny":28,"refTime":"2025-08-21T03:00:00:Z","depth":"2","parameterNumber":2,"parameterNumberName":"U-component_of_CURRENTS"},"data":[0,0,0,0,0,0,0,0,0,0,0,0,0,0,0,0,0,0,0,0,0,0,0,0,0,0,0,0,0,0,0,0,0,0,0,0,0,0,0,0,0,0,0,0,0,0,0,0,0,0,0,0,0,0,0,0,0,0,0.262,0.2621,0,0.263,0.2629,0.2629,0.2629,0.2629,0.263,0.263,0.2642,0.2642,0.2642,0,0,0,0,0,0,0,0,0,0,0,0,0,0.2532,0.2534,0.262,0.2621,0.2621,0.263,0.2629,0.2629,0.2629,0.2629,0.263,0.263,0.2641,0.2642,0.2642,0,0,0,0,0,0,0,0,0,0,0,0,0,0.2556,0.2535,0.262,0.2625,0.2626,0.263,0.2629,0.2629,0.2629,0.2629,0.263,0.263,0.2641,0.2642,0.2642,0.2637,0,0,0.2642,0.2642,0,0,0,0,0,0,0,0,0.2555,0.2559,0.2624,0.2625,0.2626,0.2632,0.2603,0.2633,0.2629,0.2624,0.263,0.263,0.2641,0.2641,0.2637,0.2637,0.2638,0.2642,0.2642,0.2643,0.2643,0,0,0,0,0,0,0,0.2553,0.2558,0.262,0.2624,0.2625,0.2603,0.2606,0.2608,0.2628,0.2625,0.2625,0.2632,0.2641,0.2637,0.2637,0.2638,0.2642,0.2643,0.2643,0.2643,0.2717,0.2719,0,0,0,0,0,0,0.2563,0.2557,0.262,0.2621,0.2594,0.2605,0.2609,0.2626,0.2628,0.2629,0.2632,0.2632,0.2636,0.2637,0.2638,0.2697,0.2643,0.2643,0.2643,0.2715,0.2718,0.272,0,0,0,0,0,0,0.2561,0.2569,0.262,0.2591,0.2596,0.2607,0.2626,0.2627,0.2635,0.2634,0.2635,0.2642,0.2636,0.2637,0.2658,0.2695,0.2643,0.2643,0.2713,0.2716,0.2719,0.2774,0,0,0,0,0,0,0.2559,0.2568,0.2572,0.2592,0.2599,0.2634,0.2626,0.2627,0.264,0.2641,0.2643,0.2643,0.2637,0.2658,0.2658,0.2694,0.2643,0.2711,0.2715,0.2718,0.2769,0.2778,0.2785,0,0,0,0,0,0.2556,0.2566,0.2573,0.258,0.2609,0.2635,0.2636,0.264,0.264,0.2648,0.2655,0.2644,0.2681,0.2659,0.2659,0.2696,0.2709,0.2714,0.2718,0.2766,0.2776,0.2785,0,0,0,0,0,0,0.2532,0.2568,0.2576,0.2597,0.262,0.2636,0.2645,0.2648,0.2657,0.266,0.2656,0.2658,0.2698,0.2687,0.2663,0.2731,0.2698,0.2702,0.2735,0.2745,0.2752,0.2776,0.2643,0,0,0,0,0,0.253,0.2553,0.258,0.2603,0.2616,0.2632,0.2639,0.2646,0.2662,0.2666,0.2674,0.2688,0.2713,0.272,0.2736,0.2758,0.2784,0.2788,0.2795,0.2802,0.2824,0.2897,0.2913,0.2734,0.2734,0.2734,0,0,0.253,0.2553,0.2567,0.26,0.2619,0.2657,0.2637,0.2661,0.269,0.2666,0.2707,0.2716,0.2727,0.2765,0.2782,0.276,0.2866,0.2807,0.2813,0.2831,0.2903,0.2921,0.2936,0.2736,0.2736,0.2736,0,0,0.2542,0.2566,0.2584,0.2606,0.2637,0.267,0.2683,0.2708,0.2713,0.2753,0.2751,0.278,0.2811,0.2825,0.2838,0.2898,0.2911,0.2907,0.2959,0.3029,0.3045,0.3059,0.3109,0.3127,0.2905,0.2905,0.2905,0,0.2532,0.2566,0.2592,0.2616,0.2633,0.2686,0.2707,0.2742,0.277,0.2774,0.278,0.2855,0.2848,0.2908,0.2928,0.2917,0.2958,0.2917,0.304,0.3055,0.3068,0.3117,0.3136,0.2908,0.2908,0.2907,0.2907,0,0.2554,0.2583,0.2602,0.2664,0.2689,0.2721,0.2772,0.2815,0.2848,0.2865,0.2926,0.2944,0.2987,0.2994,0.2978,0.3068,0.3067,0.3046,0.3015,0.309,0.3136,0.3155,0.2912,0.2911,0.291,0.291,0,0,0.2527,0.2597,0.2606,0.2638,0.2705,0.2743,0.2809,0.2867,0.2937,0.2972,0.3045,0.3077,0.309,0.3107,0.3104,0.316,0.3269,0.3147,0.3149,0.3195,0.3432,0.3324,0.3334,0.3279,0.3283,0.3286,0.3423,0,0.2532,0.2584,0.2611,0.2691,0.2727,0.2785,0.2857,0.2915,0.2983,0.3081,0.3105,0.3186,0.3135,0.3181,0.3226,0.3271,0.3324,0.3234,0.3355,0.3358,0.3252,0.3354,0.3082,0.3173,0.3442,0.3445,0.3447,0,0.2527,0.2572,0.2619,0.2713,0.2734,0.2803,0.2932,0.2996,0.3123,0.3172,0.3251,0.3289,0.3372,0.3339,0.3454,0.3406,0.3426,0.3454,0.346,0.3357,0.3286,0.3143,0.3197,0.3479,0.3477,0.3474,0.3472,0,0.2498,0.2577,0.262,0.2647,0.2769,0.281,0.2896,0.3014,0.3082,0.3251,0.3334,0.3429,0.3516,0.3567,0.3579,0.3547,0.3717,0.3671,0.3594,0.3586,0.3376,0.3342,0.3769,0.3769,0.3768,0.3768,0.3767,0,0.2487,0.2538,0.2626,0.2661,0.2752,0.2819,0.2938,0.3044,0.3194,0.3295,0.3384,0.3488,0.3586,0.3662,0.3658,0.3683,0.3772,0.3637,0.3629,0.3384,0.3351,0.3627,0.3608,0.3773,0.3772,0.3771,0.377,0,0.248,0.2518,0.2597,0.271,0.274,0.2823,0.2963,0.3073,0.3207,0.336,0.3417,0.3577,0.3679,0.3732,0.3841,0.3781,0.3814,0.3789,0.3484,0.3437,0.3621,0.3604,0.3753,0.3751,0.3749,0.3747,0.3746,0,0.25,0.2517,0.2628,0.2692,0.2755,0.2865,0.2948,0.3075,0.3165,0.3384,0.3448,0.3612,0.3658,0.3769,0.3737,0.3738,0.3797,0.3483,0.3358,0.365,0.3627,0.3613,0.36,0.3107,0.31,0.3095,0.3091,0,0.2554,0.2578,0.2639,0.2747,0.2834,0.2912,0.3014,0.3044,0.3196,0.3283,0.3391,0.3448,0.3576,0.3455,0.348,0.3433,0.346,0.3374,0.3798,0.3137,0.3047,0.3022,0.3029,0.3043,0.3048,0.3052,0.3054,0.3056,0.2585,0.2639,0.2712,0.2759,0.2886,0.2924,0.2883,0.2968,0.2998,0.3023,0.3184,0.3158,0.3229,0.3102,0.3027,0.2997,0.3214,0.3074,0.3088,0.3109,0.2994,0.2904,0.2852,0.2855,0.2858,0.2861,0.2863,0,0.2602,0.2637,0.2733,0.2781,0.2836,0.2927,0.2903,0.2784,0.2689,0.2798,0.2795,0.2574,0.2518,0.2605,0.2487,0.2497,0.2452,0.2407,0.2327,0.2377,0.2421,0.2267,0.1934,0.1931,0.1928,0.1926,0,0,0.2628,0.2647,0.2622,0.2641,0.2712,0.2684,0.2582,0.2413,0.2367,0.224,0.2208,0.2353,0.2504,0.216,0.2144,0.2025,0.2174,0.1949,0.2699,0.2654,0.2694,0.282,0.2643,0,0,0,0,0]},{"header":{"parameterUnit":"m.s-1","parameterCategory":2,"la1":30.2991,"la2":30.254,"lo1":-89.0895,"lo2":-89.0444,"dy":0.0017,"dx":0.0017,"nx":28,"ny":28,"refTime":"2025-08-21T03:00:00:Z","depth":"2","parameterNumber":3,"parameterNumberName":"V-component_of_CURRENTS"},"data":[0,0,0,0,0,0,0,0,0,0,0,0,0,0,0,0,0,0,0,0,0,0,0,0,0,0,0,0,0,0,0,0,0,0,0,0,0,0,0,0,0,0,0,0,0,0,0,0,0,0,0,0,0,0,0,0,0,0,-0.0003,-0.0004,0,-0.0061,-0.0062,-0.0062,-0.0103,-0.0103,-0.0103,-0.0103,-0.0207,-0.021,-0.0212,0,0,0,0,0,0,0,0,0,0,0,0,0,0.002,0.002,-0.0003,-0.0004,-0.0004,-0.0061,-0.0062,-0.0063,-0.0103,-0.0103,-0.0103,-0.0103,-0.0206,-0.0209,-0.0213,0,0,0,0,0,0,0,0,0,0,0,0,0,-0.0011,0.002,-0.0003,-0.003,-0.0033,-0.006,-0.0062,-0.0063,-0.0102,-0.0103,-0.0103,-0.0103,-0.0205,-0.0209,-0.0213,-0.0233,0,0,-0.0225,-0.0227,0,0,0,0,0,0,0,0,-0.0009,-0.0012,-0.0025,-0.0028,-0.0031,-0.0073,-0.0092,-0.0121,-0.0102,-0.0078,-0.0103,-0.0103,-0.0165,-0.0173,-0.0185,-0.0238,-0.0242,-0.0225,-0.0228,-0.0229,-0.0231,0,0,0,0,0,0,0,-0.0006,-0.001,-0.0028,-0.0026,-0.003,-0.0057,-0.0061,-0.0098,-0.0122,-0.008,-0.0083,-0.0086,-0.0168,-0.0181,-0.0188,-0.0244,-0.0225,-0.0229,-0.0231,-0.0233,-0.0303,-0.0302,0,0,0,0,0,0,0.0007,-0.0007,-0.0026,-0.0029,-0.0018,-0.0056,-0.0061,-0.0061,-0.0121,-0.0129,-0.0086,-0.0088,-0.0174,-0.0183,-0.0191,-0.0204,-0.0229,-0.0233,-0.0235,-0.0303,-0.0303,-0.0302,0,0,0,0,0,0,0.0008,0.0006,-0.0024,-0.0019,-0.0024,-0.0056,-0.0056,-0.0062,-0.0072,-0.0124,-0.0134,-0.0089,-0.0174,-0.0186,-0.0218,-0.0208,-0.0235,-0.0239,-0.0304,-0.0303,-0.0302,-0.0237,0,0,0,0,0,0,0.0009,0.0007,0.001,-0.0017,-0.0024,-0.003,-0.0055,-0.0063,-0.0074,-0.0077,-0.013,-0.014,-0.0176,-0.0212,-0.0222,-0.0214,-0.0242,-0.0304,-0.0303,-0.0303,-0.024,-0.0235,-0.023,0,0,0,0,0,0.001,0.0022,0.0011,0.0008,-0.0017,-0.0029,-0.0035,-0.006,-0.0073,-0.0072,-0.011,-0.0139,-0.0213,-0.0215,-0.0227,-0.022,-0.0305,-0.0304,-0.0303,-0.0243,-0.0236,-0.023,0,0,0,0,0,0,0.0036,0.0019,0.0006,0.0012,-0.0004,-0.0035,-0.0036,-0.0054,-0.0083,-0.0087,-0.0138,-0.0151,-0.0175,-0.0205,-0.0206,-0.0236,-0.0261,-0.0262,-0.0211,-0.0206,-0.02,-0.0172,-0.0245,0,0,0,0,0,0.0043,0.0047,0.0024,0.003,0.0025,-0.0006,-0.0014,-0.0029,-0.0057,-0.007,-0.0108,-0.0147,-0.018,-0.0198,-0.0232,-0.0252,-0.0277,-0.0253,-0.0248,-0.0243,-0.0228,-0.0253,-0.0248,-0.0298,-0.0298,-0.0298,0,0,0.0055,0.0046,0.0048,0.0035,0.002,0.0023,-0.0011,-0.0015,-0.0014,-0.0077,-0.009,-0.0132,-0.0181,-0.0201,-0.0214,-0.0226,-0.0245,-0.0242,-0.0237,-0.0224,-0.0251,-0.0246,-0.0242,-0.0298,-0.0298,-0.0298,0,0,0.0085,0.0073,0.0087,0.0078,0.0064,0.0047,0.005,0.0023,0.001,-0.001,-0.0052,-0.0084,-0.0137,-0.0166,-0.0189,-0.0175,-0.0217,-0.0186,-0.0138,-0.0163,-0.0159,-0.0156,-0.019,-0.0191,-0.0183,-0.0182,-0.0182,0,0.0099,0.0114,0.0089,0.01,0.0101,0.0064,0.0081,0.0063,0.0029,0.0025,-0.0002,-0.0068,-0.0117,-0.0134,-0.0133,-0.0162,-0.0185,-0.0159,-0.0155,-0.0152,-0.015,-0.0187,-0.0188,-0.0179,-0.018,-0.018,-0.018,0,0.0138,0.015,0.0159,0.0161,0.0156,0.0167,0.0143,0.0139,0.0115,0.0093,0.007,0.0005,-0.0029,-0.0055,-0.0095,-0.0099,-0.0124,-0.0146,-0.0168,-0.0141,-0.0182,-0.0184,-0.0175,-0.0176,-0.0177,-0.0178,0,0,0.0173,0.0186,0.0189,0.0209,0.0193,0.0202,0.0205,0.0202,0.0222,0.017,0.0186,0.0109,0.0075,0.0048,-0.0005,-0.0033,-0.0054,-0.0077,-0.008,-0.0106,-0.0113,-0.0158,-0.0166,-0.0074,-0.0074,-0.0074,-0.0152,0,0.0213,0.0259,0.0246,0.029,0.0313,0.0287,0.0299,0.029,0.0272,0.0278,0.021,0.0197,0.0114,0.0105,0.0061,-0.0014,-0.0055,-0.0031,-0.014,-0.0143,-0.0182,-0.0168,-0.0134,-0.0202,-0.0154,-0.0155,-0.0155,0,0.0254,0.0283,0.0334,0.0372,0.038,0.0398,0.0426,0.0436,0.0423,0.0412,0.0379,0.0322,0.0271,0.0202,0.008,0.0101,0.0,-0.0069,-0.0075,-0.0136,-0.0192,-0.0221,-0.0209,-0.0159,-0.0159,-0.0159,-0.0158,0,0.0301,0.0347,0.0395,0.0405,0.0435,0.046,0.048,0.0479,0.0513,0.0506,0.0521,0.044,0.0421,0.029,0.0116,0.0107,-0.002,-0.0052,-0.0192,-0.0197,-0.0199,-0.0204,-0.014,-0.014,-0.014,-0.014,-0.014,0,0.0348,0.0392,0.043,0.0459,0.0529,0.0529,0.0605,0.0608,0.0643,0.0703,0.06,0.0607,0.0445,0.0336,0.0164,-0.0021,0.0009,-0.0177,-0.0215,-0.0178,-0.018,-0.0165,-0.0167,-0.0143,-0.0142,-0.0142,-0.0141,0,0.0385,0.0409,0.0479,0.0533,0.0552,0.061,0.0695,0.076,0.0769,0.0847,0.085,0.0757,0.0621,0.0422,0.0223,0.0057,-0.0128,-0.0211,-0.0164,-0.0196,-0.0301,-0.0298,-0.0352,-0.0354,-0.0356,-0.0357,-0.0359,0,0.0407,0.0435,0.053,0.0586,0.0615,0.0703,0.0769,0.0818,0.0885,0.0927,0.096,0.0861,0.0773,0.0442,0.0167,-0.0122,-0.0159,-0.0293,-0.0311,-0.0288,-0.032,-0.0315,-0.031,-0.0293,-0.0293,-0.0294,-0.0294,0,0.043,0.0463,0.0518,0.0621,0.0707,0.0816,0.0908,0.0986,0.106,0.1109,0.1121,0.1055,0.0772,0.0485,0.0101,-0.01,-0.0241,-0.0314,-0.0289,-0.0247,-0.0239,-0.0268,-0.0264,-0.0299,-0.0298,-0.0298,-0.0298,-0.0298,0.0425,0.0469,0.053,0.0627,0.0742,0.0871,0.0964,0.1072,0.1167,0.125,0.1211,0.114,0.0848,0.0353,0.0029,-0.0282,-0.028,-0.0398,-0.0393,-0.0388,-0.037,-0.0366,-0.0446,-0.0447,-0.0447,-0.0447,-0.0448,0,0.0378,0.0424,0.0529,0.0626,0.0752,0.0829,0.1005,0.1103,0.1214,0.1315,0.1322,0.1046,0.0721,0.0403,-0.0059,-0.0367,-0.0372,-0.0456,-0.0385,-0.0379,-0.0375,-0.0353,-0.0427,-0.0427,-0.0428,-0.0428,0,0,0.0351,0.0393,0.0451,0.0586,0.0687,0.0848,0.0969,0.1116,0.1228,0.1306,0.1309,0.1233,0.0836,0.051,0.0107,-0.0147,-0.0193,-0.0203,-0.0192,-0.0056,-0.0047,-0.032,-0.0279,0,0,0,0,0]}],[{"header":{"parameterUnit":"m.s-1","parameterCategory":2,"la1":30.2991,"la2":30.254,"lo1":-89.0895,"lo2":-89.0444,"dy":0.0017,"dx":0.0017,"nx":28,"ny":28,"refTime":"2025-08-21T03:00:00:Z","depth":"4","parameterNumber":2,"parameterNumberName":"U-component_of_CURRENTS"},"data":[0,0,0,0,0,0,0,0,0,0,0,0,0,0,0,0,0,0,0,0,0,0,0,0,0,0,0,0,0,0,0,0,0,0,0,0,0,0,0,0,0,0,0,0,0,0,0,0,0,0,0,0,0,0,0,0,0,0,0.1464,0.1465,0,0.1537,0.1538,0.1538,0.1605,0.1606,0.1607,0.1607,0.1658,0.1659,0.166,0,0,0,0,0,0,0,0,0,0,0,0,0,0.1396,0.1397,0.1464,0.1465,0.1466,0.1537,0.1538,0.1539,0.1605,0.1606,0.1607,0.1608,0.1658,0.1659,0.166,0,0,0,0,0,0,0,0,0,0,0,0,0,0.1443,0.1397,0.1464,0.1507,0.1512,0.1536,0.1538,0.1539,0.1605,0.1606,0.1607,0.1608,0.1658,0.1659,0.166,0.1643,0,0,0.1663,0.1663,0,0,0,0,0,0,0,0,0.144,0.1445,0.15,0.1504,0.1509,0.1563,0.1532,0.1572,0.1604,0.157,0.1607,0.1609,0.1623,0.1627,0.1639,0.1645,0.1648,0.1663,0.1664,0.1664,0.1664,0,0,0,0,0,0,0,0.1437,0.1443,0.1493,0.1501,0.1506,0.1527,0.1535,0.154,0.1589,0.1573,0.1578,0.1585,0.1626,0.1638,0.1641,0.1648,0.1663,0.1664,0.1664,0.1665,0.1774,0.1776,0,0,0,0,0,0,0.1425,0.144,0.1491,0.1496,0.1476,0.1527,0.1536,0.1545,0.159,0.1598,0.1584,0.1588,0.1636,0.164,0.1643,0.1714,0.1664,0.1665,0.1665,0.1771,0.1774,0.1777,0,0,0,0,0,0,0.1423,0.1429,0.1488,0.1469,0.1478,0.1527,0.1536,0.1546,0.1596,0.1598,0.1606,0.1628,0.1637,0.1641,0.1684,0.1713,0.1665,0.1666,0.1769,0.1772,0.1775,0.18,0,0,0,0,0,0,0.1421,0.1428,0.1449,0.1468,0.1478,0.1531,0.1535,0.1546,0.1595,0.1602,0.1638,0.1642,0.1638,0.1682,0.1684,0.1714,0.1667,0.1766,0.177,0.1774,0.1796,0.1804,0.181,0,0,0,0,0,0.1418,0.143,0.1449,0.1456,0.1499,0.1532,0.1541,0.1579,0.1597,0.1627,0.1652,0.1643,0.1712,0.1684,0.1687,0.1717,0.1764,0.1769,0.1774,0.1793,0.1802,0.181,0,0,0,0,0,0,0.1414,0.1439,0.146,0.1482,0.152,0.1544,0.1572,0.1599,0.1643,0.1655,0.166,0.1666,0.1722,0.172,0.1689,0.1767,0.1741,0.1747,0.1755,0.1764,0.1771,0.1779,0.1668,0,0,0,0,0,0.1421,0.1441,0.1471,0.1497,0.1513,0.1551,0.1576,0.1604,0.1634,0.1657,0.168,0.1709,0.1738,0.1752,0.1779,0.1805,0.1823,0.1834,0.1841,0.1846,0.1859,0.1926,0.194,0.1794,0.1794,0.1793,0,0,0.1429,0.1445,0.146,0.1499,0.1528,0.1551,0.1571,0.1615,0.1645,0.1652,0.1706,0.1738,0.1756,0.1798,0.1822,0.18,0.1895,0.1853,0.1857,0.1867,0.1933,0.1947,0.196,0.1797,0.1797,0.1796,0,0,0.1436,0.1468,0.1484,0.1515,0.1562,0.1577,0.1598,0.1643,0.168,0.1728,0.175,0.1801,0.1836,0.1859,0.1871,0.1934,0.1939,0.1952,0.198,0.2045,0.2057,0.2068,0.209,0.2103,0.1945,0.1945,0.1945,0,0.1447,0.1466,0.1498,0.1521,0.1548,0.159,0.1616,0.1651,0.171,0.1749,0.1754,0.1853,0.1863,0.1921,0.1945,0.1947,0.1979,0.1937,0.2052,0.2064,0.2074,0.2095,0.2108,0.1947,0.1946,0.1946,0.1946,0,0.1457,0.1487,0.15,0.1536,0.1574,0.1604,0.1648,0.1698,0.1741,0.1784,0.1877,0.1903,0.1969,0.1978,0.1974,0.2063,0.2058,0.2058,0.2023,0.209,0.2107,0.2121,0.1949,0.1948,0.1948,0.1947,0,0,0.1435,0.1492,0.1502,0.1533,0.1586,0.1619,0.1668,0.1733,0.1794,0.1855,0.1939,0.1989,0.2038,0.2058,0.2075,0.2117,0.2202,0.2123,0.2126,0.213,0.2334,0.2177,0.2177,0.2233,0.2236,0.2239,0.2307,0,0.1434,0.1473,0.1504,0.1558,0.1582,0.1641,0.1689,0.1765,0.1835,0.1927,0.1984,0.2073,0.2057,0.211,0.2152,0.2211,0.2245,0.2183,0.2281,0.2283,0.2125,0.219,0.2249,0.2317,0.232,0.2322,0.2324,0,0.1426,0.1456,0.1499,0.1581,0.1601,0.1643,0.175,0.1808,0.1932,0.1999,0.2095,0.2156,0.2245,0.2223,0.2334,0.2305,0.2327,0.2346,0.235,0.2207,0.2153,0.2244,0.2349,0.2347,0.2345,0.2343,0.2342,0,0.1388,0.1455,0.1491,0.1517,0.1606,0.1658,0.1721,0.1841,0.1912,0.207,0.214,0.2257,0.2333,0.2394,0.2427,0.2411,0.2532,0.2511,0.238,0.2368,0.2474,0.2462,0.2587,0.2587,0.2587,0.2587,0.2587,0,0.1354,0.139,0.1486,0.1506,0.1577,0.1663,0.1766,0.1847,0.1983,0.2069,0.219,0.2256,0.2389,0.2459,0.2475,0.2462,0.2573,0.2397,0.2386,0.248,0.2469,0.2482,0.2469,0.2589,0.2589,0.2588,0.2588,0,0.1294,0.1351,0.1398,0.1507,0.1556,0.1613,0.1772,0.1837,0.1983,0.2098,0.2153,0.2301,0.2394,0.2471,0.2576,0.2505,0.2519,0.248,0.2564,0.2555,0.2298,0.2286,0.2352,0.2348,0.2344,0.234,0.2337,0,0.1257,0.1274,0.1392,0.1422,0.1472,0.1585,0.1652,0.1819,0.189,0.2087,0.2117,0.2269,0.2347,0.2358,0.2455,0.2482,0.2449,0.2431,0.237,0.2297,0.228,0.2274,0.2268,0.2331,0.233,0.2329,0.2328,0,0.1168,0.1218,0.126,0.133,0.1398,0.1483,0.16,0.1649,0.183,0.1978,0.2045,0.2102,0.2196,0.2268,0.2307,0.2314,0.2436,0.2389,0.2397,0.2339,0.2272,0.2258,0.2256,0.2314,0.2316,0.2317,0.2318,0,0.11,0.1102,0.1155,0.1218,0.1291,0.1336,0.1433,0.1522,0.1621,0.1847,0.1864,0.2016,0.217,0.2179,0.221,0.2218,0.2187,0.211,0.2131,0.2148,0.205,0.1933,0.1872,0,0,0,0,0,0.1013,0.1002,0.1039,0.1083,0.1153,0.1209,0.1363,0.1465,0.1659,0.1657,0.1763,0.1839,0.1909,0.1989,0.1959,0.2117,0.2189,0.2072,0.2107,0.2237,0.2253,0.2157,0,0,0,0,0,0,0.0941,0.0953,0.0985,0.0959,0.0978,0.1042,0.1141,0.1279,0.1308,0.151,0.1564,0.171,0.1811,0.1897,0.1913,0.1939,0.1921,0.2179,0.2174,0.2228,0.2243,0.2256,0.2162,0,0,0,0,0]},{"header":{"parameterUnit":"m.s-1","parameterCategory":2,"la1":30.2991,"la2":30.254,"lo1":-89.0895,"lo2":-89.0444,"dy":0.0017,"dx":0.0017,"nx":28,"ny":28,"refTime":"2025-08-21T03:00:00:Z","depth":"4","parameterNumber":3,"parameterNumberName":"V-component_of_CURRENTS"},"data":[0,0,0,0,0,0,0,0,0,0,0,0,0,0,0,0,0,0,0,0,0,0,0,0,0,0,0,0,0,0,0,0,0,0,0,0,0,0,0,0,0,0,0,0,0,0,0,0,0,0,0,0,0,0,0,0,0,0,0.0002,0.0002,0,-0.0036,-0.0037,-0.0037,-0.0066,-0.0066,-0.0066,-0.0066,-0.0136,-0.0138,-0.014,0,0,0,0,0,0,0,0,0,0,0,0,0,0.0015,0.0015,0.0002,0.0002,0.0001,-0.0036,-0.0037,-0.0037,-0.0066,-0.0066,-0.0066,-0.0066,-0.0136,-0.0138,-0.014,0,0,0,0,0,0,0,0,0,0,0,0,0,-0.0005,0.0015,0.0002,-0.0017,-0.0019,-0.0036,-0.0037,-0.0038,-0.0066,-0.0066,-0.0066,-0.0066,-0.0135,-0.0137,-0.014,-0.0151,0,0,-0.0148,-0.0149,0,0,0,0,0,0,0,0,-0.0004,-0.0005,-0.0013,-0.0015,-0.0018,-0.0046,-0.0058,-0.0077,-0.0066,-0.0049,-0.0066,-0.0067,-0.0108,-0.0113,-0.0121,-0.0155,-0.0158,-0.0148,-0.015,-0.0151,-0.0152,0,0,0,0,0,0,0,-0.0002,-0.0004,-0.0014,-0.0014,-0.0016,-0.0035,-0.0038,-0.0062,-0.0078,-0.005,-0.0052,-0.0055,-0.011,-0.0118,-0.0122,-0.0159,-0.0148,-0.015,-0.0152,-0.0153,-0.0207,-0.0207,0,0,0,0,0,0,0.0007,-0.0002,-0.0013,-0.0015,-0.001,-0.0035,-0.0038,-0.0037,-0.0077,-0.0083,-0.0055,-0.0056,-0.0113,-0.0119,-0.0125,-0.0134,-0.0151,-0.0153,-0.0155,-0.0208,-0.0207,-0.0207,0,0,0,0,0,0,0.0007,0.0007,-0.0011,-0.0009,-0.0013,-0.0035,-0.0033,-0.0038,-0.0047,-0.008,-0.0086,-0.0059,-0.0114,-0.0121,-0.0145,-0.0137,-0.0154,-0.0157,-0.0208,-0.0208,-0.0207,-0.0156,0,0,0,0,0,0,0.0008,0.0007,0.0009,-0.0008,-0.0012,-0.0018,-0.0033,-0.0038,-0.0048,-0.005,-0.0086,-0.0093,-0.0115,-0.0141,-0.0148,-0.0141,-0.0159,-0.0208,-0.0208,-0.0207,-0.0158,-0.0155,-0.0151,0,0,0,0,0,0.0009,0.0017,0.001,0.0008,-0.0008,-0.0017,-0.0021,-0.0039,-0.0047,-0.0049,-0.0074,-0.0092,-0.0145,-0.0143,-0.0151,-0.0145,-0.0208,-0.0208,-0.0207,-0.016,-0.0155,-0.0151,0,0,0,0,0,0,0.0023,0.0014,0.0006,0.0011,-0.0001,-0.0022,-0.0023,-0.0036,-0.0057,-0.0059,-0.0093,-0.0101,-0.012,-0.0141,-0.0138,-0.0161,-0.0178,-0.018,-0.0139,-0.0135,-0.0132,-0.0116,-0.0161,0,0,0,0,0,0.0028,0.0032,0.0017,0.002,0.0017,-0.0004,-0.001,-0.002,-0.004,-0.0049,-0.0075,-0.0102,-0.0125,-0.0136,-0.0161,-0.0174,-0.0205,-0.0175,-0.0171,-0.0168,-0.016,-0.0203,-0.0202,-0.0207,-0.0207,-0.0207,0,0,0.0034,0.003,0.0032,0.0024,0.0013,0.0017,-0.0008,-0.0012,-0.0009,-0.0053,-0.0062,-0.0093,-0.0127,-0.014,-0.015,-0.0156,-0.0185,-0.0168,-0.0165,-0.0159,-0.0203,-0.0202,-0.0202,-0.0206,-0.0206,-0.0207,0,0,0.0054,0.0046,0.0057,0.0052,0.0043,0.0032,0.0033,0.0015,0.0005,-0.0009,-0.0039,-0.0063,-0.01,-0.0118,-0.0133,-0.0126,-0.0168,-0.0136,-0.0102,-0.0144,-0.0144,-0.0144,-0.019,-0.0195,-0.0131,-0.0131,-0.0131,0,0.0062,0.0076,0.0058,0.0068,0.0072,0.0043,0.006,0.0045,0.002,0.0015,-0.0004,-0.0058,-0.0086,-0.0102,-0.0098,-0.0117,-0.0152,-0.0113,-0.0139,-0.014,-0.0141,-0.0188,-0.0194,-0.0128,-0.0129,-0.0129,-0.0129,0,0.009,0.0101,0.0108,0.0115,0.0114,0.0123,0.0108,0.01,0.0082,0.0065,0.0039,-0.0006,-0.0036,-0.005,-0.0071,-0.0089,-0.0116,-0.0132,-0.0146,-0.0137,-0.0188,-0.0195,-0.0125,-0.0126,-0.0127,-0.0127,0,0,0.011,0.0127,0.013,0.0146,0.0144,0.0149,0.0153,0.015,0.0151,0.0114,0.0106,0.0065,0.0034,0.0015,-0.0021,-0.0055,-0.0095,-0.009,-0.0094,-0.0131,-0.0195,-0.0187,-0.0195,-0.0119,-0.012,-0.012,-0.0229,0,0.0139,0.0176,0.0175,0.0211,0.0229,0.0214,0.0221,0.0212,0.0189,0.0169,0.0119,0.0095,0.006,0.0042,0.0005,-0.0071,-0.011,-0.0064,-0.0203,-0.0207,-0.0197,-0.0201,-0.0123,-0.0235,-0.0236,-0.0238,-0.0238,0,0.0167,0.019,0.0233,0.0266,0.0273,0.0288,0.0296,0.0298,0.0264,0.0245,0.0208,0.0158,0.0108,0.0071,-0.0047,-0.0018,-0.0097,-0.016,-0.0166,-0.0178,-0.0211,-0.0246,-0.0252,-0.0251,-0.025,-0.0249,-0.0248,0,0.0188,0.0232,0.0272,0.0282,0.0308,0.0325,0.0335,0.032,0.0324,0.0287,0.0273,0.0203,0.0156,0.006,-0.0065,-0.0061,-0.0209,-0.0221,-0.0291,-0.0293,-0.029,-0.0288,-0.0307,-0.0307,-0.0307,-0.0307,-0.0306,0,0.0216,0.0247,0.0287,0.0306,0.0352,0.036,0.0392,0.0385,0.0375,0.0381,0.0313,0.0286,0.0149,0.0046,-0.006,-0.0196,-0.0208,-0.0285,-0.0317,-0.0267,-0.0262,-0.0296,-0.0293,-0.0311,-0.031,-0.0309,-0.0308,0,0.0219,0.0249,0.0293,0.0339,0.036,0.0386,0.0432,0.0447,0.0436,0.0435,0.0425,0.0333,0.0211,0.0065,-0.0107,-0.019,-0.0319,-0.0369,-0.0311,-0.0338,-0.0378,-0.0372,-0.0449,-0.045,-0.045,-0.0451,-0.0451,0,0.0218,0.0242,0.0309,0.034,0.0362,0.0412,0.0445,0.0469,0.0488,0.0466,0.0462,0.0348,0.0274,0.0044,-0.0113,-0.0319,-0.0347,-0.0423,-0.0389,-0.0368,-0.0392,-0.0384,-0.0377,-0.0452,-0.0452,-0.0452,-0.0452,0,0.0209,0.0234,0.0273,0.0346,0.0394,0.0453,0.0506,0.0528,0.0553,0.0537,0.0503,0.0385,0.0239,0.0062,-0.0111,-0.0257,-0.0372,-0.0428,-0.0428,-0.0396,-0.0373,-0.0394,-0.0386,-0.0454,-0.0454,-0.0453,-0.0453,0,0.0201,0.0227,0.0291,0.0359,0.042,0.0491,0.0514,0.0554,0.0581,0.0566,0.0549,0.0404,0.0313,0.0091,-0.0062,-0.0208,-0.0238,-0.0281,-0.0288,-0.0289,-0.0205,-0.0149,-0.0187,0,0,0,0,0,0.0204,0.0258,0.0305,0.0396,0.0452,0.0502,0.056,0.0579,0.0604,0.0593,0.0583,0.046,0.0242,0.0137,-0.0003,-0.0086,-0.028,-0.0258,-0.0336,-0.0463,-0.0461,-0.0389,0,0,0,0,0,0,0.0215,0.0272,0.0314,0.0421,0.0481,0.056,0.0599,0.0608,0.061,0.0603,0.0491,0.0432,0.0216,0.0334,-0.0,-0.0049,-0.0118,-0.0364,-0.0367,-0.0464,-0.0462,-0.0461,-0.0386,0,0,0,0,0]}]]